Location: Unspecified
(0.0000°N, 0.0000°E)
Time: 07:59:19
(UTC+00:00)

Explorer 11/Cluster Stage 4 - Pass Details

Date: 19 July 2020
Orbit: 467 x 1259 km, 28.8° (Epoch: 03 August)

Event Time Altitude Azimuth Distance (km) Brightness Sun altitude
Rises 17:13:17 0° 284° (WNW) 3,912 12.2 12.4°
Reaches altitude 10° 17:16:06 10° 278° (W) 3,044 11.7 11.8°
Maximum altitude 17:23:23 43° 209° (SSW) 1,678 8.5 10.1°
Drops below altitude 10° 17:31:07 10° 140° (SE) 3,227 9.2 8.3°
Sets 17:34:12 0° 134° (SE) 4,166 9.7 7.5°
